Weather History for Miramar MCAS, CA

Change the Weather History Date:

Sunday, October 7, 2012

  Actual Average Record
Temperature  
Mean Temperature 70 °F -  
Max Temperature 79 °F 74 °F 97 °F (2008)
Min Temperature 61 °F 55 °F 32 °F (2014)
Cooling Degree Days 5    
Growing Degree Days 20 (Base 50)    
Moisture  
Dew Point 60 °F    
Average Humidity 74    
Maximum Humidity 88    
Minimum Humidity 50    
Precipitation  
Precipitation 0.00 in - - ()
Sea Level Pressure  
Sea Level Pressure 29.90 in    
Wind  
Wind Speed 2 mph (West)    
Max Wind Speed 8 mph    
Max Gust Speed -    
Visibility 10 miles    
Events      
Averages and records for this station are not official NWS values.
T = Trace of Precipitation, MM = Missing Value Source: NWS Daily Summary

Daily Weather History Graph

Daily Weather History Graph

Search for Another Location

Airport:

Trip Planner

Search our weather history database for the weather conditions in past years. The results will help you decide how hot, cold, wet, or windy it might be!

Date:

Astronomy

Oct. 07, 2012 Rise Set
Actual Time 6:47 AM PDT 6:24 PM PDT
Civil Twilight 6:22 AM PDT 6:49 PM PDT
Nautical Twilight 5:53 AM PDT 7:17 PM PDT
Astronomical Twilight 5:25 AM PDT 7:46 PM PDT
Moon 11:52 PM PDT (10/7) 1:14 PM PDT (10/7)
Length of Visible Light 12h 26m
Length of Day
11h 37m
Waning Gibbous, 55% of the Moon is Illuminated
Oct 7
Waning Gibbous
Oct 8
Last Quarter
Oct 15
New
Oct 21
First Quarter
Oct 29
Full

Hourly Weather History & Observations

Time (PDT) Temp. Dew Point Humidity Pressure Visibility Wind Dir Wind Speed Gust Speed Precip Events Conditions
12:55 AM 62.1 °F 57.9 °F 86% 29.91 in 10.0 mi Calm Calm - N/A   Mostly Cloudy
12:58 AM 62.6 °F 59.0 °F 88% 29.92 in 10.0 mi Calm Calm - N/A   Mostly Cloudy
1:55 AM 64.9 °F 61.0 °F 87% 29.90 in 10.0 mi Calm Calm - N/A   Mostly Cloudy
2:55 AM 64.9 °F 61.0 °F 87% 29.89 in 10.0 mi Calm Calm - N/A   Mostly Cloudy
3:55 AM 64.9 °F 61.0 °F 87% 29.88 in 10.0 mi Calm Calm - N/A   Mostly Cloudy
4:55 AM 64.9 °F 60.1 °F 84% 29.88 in 10.0 mi Calm Calm - N/A   Mostly Cloudy
5:55 AM 66.9 °F 61.0 °F 81% 29.89 in 10.0 mi Calm Calm - N/A   Mostly Cloudy
6:55 AM 66.0 °F 60.1 °F 81% 29.91 in 10.0 mi Calm Calm - N/A   Mostly Cloudy
7:55 AM 68.0 °F 60.1 °F 76% 29.92 in 10.0 mi Calm Calm - N/A   Mostly Cloudy
8:55 AM 70.0 °F 60.1 °F 71% 29.93 in 10.0 mi SW 3.5 mph - N/A   Mostly Cloudy
9:12 AM 71.6 °F 60.8 °F 69% 29.95 in 10.0 mi Calm Calm - N/A   Scattered Clouds
9:55 AM 73.0 °F 59.0 °F 61% 29.93 in 10.0 mi SW 4.6 mph - N/A   Scattered Clouds
10:55 AM 75.9 °F 59.0 °F 56% 29.92 in 10.0 mi SSW 5.8 mph - N/A   Partly Cloudy
11:55 AM 77.0 °F 59.0 °F 54% 29.91 in 10.0 mi WNW 8.1 mph - N/A   Partly Cloudy
12:55 PM 78.1 °F 57.9 °F 50% 29.90 in 10.0 mi West 6.9 mph - N/A   Partly Cloudy
1:55 PM 78.1 °F 57.9 °F 50% 29.88 in 10.0 mi West 8.1 mph - N/A   Partly Cloudy
2:55 PM 75.9 °F 59.0 °F 56% 29.87 in 10.0 mi West 8.1 mph - N/A   Partly Cloudy
3:55 PM 75.9 °F 59.0 °F 56% 29.87 in 10.0 mi WSW 8.1 mph - N/A   Partly Cloudy
4:55 PM 73.0 °F 59.0 °F 61% 29.87 in 10.0 mi WNW 8.1 mph - N/A   Partly Cloudy
5:55 PM 70.0 °F 60.1 °F 71% 29.88 in 10.0 mi West 8.1 mph - N/A   Scattered Clouds
6:55 PM 66.9 °F 60.1 °F 79% 29.89 in 10.0 mi NW 5.8 mph - N/A   Scattered Clouds
7:55 PM 64.9 °F 59.0 °F 81% 29.90 in 10.0 mi WNW 4.6 mph - N/A   Scattered Clouds
8:55 PM 66.0 °F 60.1 °F 81% 29.91 in 10.0 mi WNW 4.6 mph - N/A   Scattered Clouds
9:43 PM 64.4 °F 60.8 °F 88% 29.93 in 10.0 mi Calm Calm - N/A   Mostly Cloudy
9:55 PM 66.0 °F 60.1 °F 81% 29.92 in 10.0 mi Calm Calm - N/A   Overcast
10:55 PM 66.0 °F 60.1 °F 81% 29.92 in 10.0 mi Calm Calm - N/A   Mostly Cloudy
11:55 PM 61.0 °F 55.9 °F 83% 29.92 in 10.0 mi ENE 3.5 mph - N/A   Scattered Clouds